Year,Month,Day,Hour,Minute,Value (Times are PST for temperature in C)
2018,07,15,00,00,25.70
2018,07,15,00,01,25.70
2018,07,15,00,02,25.70
2018,07,15,00,03,25.70
2018,07,15,00,04,25.70
2018,07,15,00,05,25.70
2018,07,15,00,06,25.70
2018,07,15,00,07,25.70
2018,07,15,00,08,25.70
2018,07,15,00,09,25.70
2018,07,15,00,10,25.70
2018,07,15,00,11,25.70
2018,07,15,00,12,25.70
2018,07,15,00,13,25.70
2018,07,15,00,14,25.60
2018,07,15,00,15,25.60
2018,07,15,00,16,25.60
2018,07,15,00,17,25.60
2018,07,15,00,18,25.60
2018,07,15,00,19,25.60
2018,07,15,00,20,25.60
2018,07,15,00,21,25.60
2018,07,15,00,22,25.60
2018,07,15,00,23,25.60
2018,07,15,00,24,25.60
2018,07,15,00,25,25.60
2018,07,15,00,26,25.60
2018,07,15,00,27,25.60
2018,07,15,00,28,25.60
2018,07,15,00,29,25.60
2018,07,15,00,30,25.60
2018,07,15,00,31,25.50
2018,07,15,00,32,25.50
2018,07,15,00,33,25.50
2018,07,15,00,34,25.50
2018,07,15,00,35,25.50
2018,07,15,00,36,25.60
2018,07,15,00,37,25.60
2018,07,15,00,38,25.60
2018,07,15,00,39,25.60
2018,07,15,00,40,25.60
2018,07,15,00,41,25.60
2018,07,15,00,42,25.70
2018,07,15,00,43,25.70
2018,07,15,00,44,25.70
2018,07,15,00,45,25.70
2018,07,15,00,46,25.70
2018,07,15,00,47,25.70
2018,07,15,00,48,25.70
2018,07,15,00,49,25.70
2018,07,15,00,50,25.70
2018,07,15,00,51,25.70
2018,07,15,00,52,25.70
2018,07,15,00,53,25.60
2018,07,15,00,54,25.60
2018,07,15,00,55,25.60
2018,07,15,00,56,25.60
2018,07,15,00,57,25.60
2018,07,15,00,58,25.60
2018,07,15,00,59,25.60
2018,07,15,01,00,25.60
2018,07,15,01,01,25.60
2018,07,15,01,02,25.60
2018,07,15,01,03,25.50
2018,07,15,01,04,25.50
2018,07,15,01,05,25.50
2018,07,15,01,06,25.40
2018,07,15,01,07,25.40
2018,07,15,01,08,25.40
2018,07,15,01,09,25.40
2018,07,15,01,10,25.40
2018,07,15,01,11,25.30
2018,07,15,01,12,25.30
2018,07,15,01,13,25.30
2018,07,15,01,14,25.30
2018,07,15,01,15,25.30
2018,07,15,01,16,25.20
2018,07,15,01,17,25.20
2018,07,15,01,18,25.20
2018,07,15,01,19,25.10
2018,07,15,01,20,25.10
2018,07,15,01,21,25.10
2018,07,15,01,22,25.00
2018,07,15,01,23,25.00
2018,07,15,01,24,24.90
2018,07,15,01,25,24.90
2018,07,15,01,26,24.90
2018,07,15,01,27,24.80
2018,07,15,01,28,24.80
2018,07,15,01,29,24.70
2018,07,15,01,30,24.60
2018,07,15,01,31,24.60
2018,07,15,01,32,24.50
2018,07,15,01,33,24.50
2018,07,15,01,34,24.40
2018,07,15,01,35,24.40
2018,07,15,01,36,24.40
2018,07,15,01,37,24.30
2018,07,15,01,38,24.30
2018,07,15,01,39,24.30
2018,07,15,01,40,24.30
2018,07,15,01,41,24.30
2018,07,15,01,42,24.20
2018,07,15,01,43,24.20
2018,07,15,01,44,24.20
2018,07,15,01,45,24.20
2018,07,15,01,46,24.20
2018,07,15,01,47,24.20
2018,07,15,01,48,24.20
2018,07,15,01,49,24.20
2018,07,15,01,50,24.20
2018,07,15,01,51,24.20
2018,07,15,01,52,24.10
2018,07,15,01,53,24.10
2018,07,15,01,54,24.10
2018,07,15,01,55,24.10
2018,07,15,01,56,24.10
2018,07,15,01,57,24.10
2018,07,15,01,58,24.10
2018,07,15,01,59,24.10
2018,07,15,02,00,24.10
2018,07,15,02,01,24.20
2018,07,15,02,02,24.20
2018,07,15,02,03,24.20
2018,07,15,02,04,24.20
2018,07,15,02,05,24.20
2018,07,15,02,06,24.20
2018,07,15,02,07,24.20
2018,07,15,02,08,24.20
2018,07,15,02,09,24.20
2018,07,15,02,10,24.10
2018,07,15,02,11,24.10
2018,07,15,02,12,24.10
2018,07,15,02,13,24.10
2018,07,15,02,14,24.10
2018,07,15,02,15,24.00
2018,07,15,02,16,24.00
2018,07,15,02,17,24.00
2018,07,15,02,18,24.00
2018,07,15,02,19,24.00
2018,07,15,02,20,24.00
2018,07,15,02,21,24.00
2018,07,15,02,22,24.10
2018,07,15,02,23,24.10
2018,07,15,02,24,24.10
2018,07,15,02,25,24.10
2018,07,15,02,26,24.10
2018,07,15,02,27,24.10
2018,07,15,02,28,24.00
2018,07,15,02,29,24.00
2018,07,15,02,30,23.90
2018,07,15,02,31,23.90
2018,07,15,02,32,23.90
2018,07,15,02,33,23.80
2018,07,15,02,34,23.80
2018,07,15,02,35,23.80
2018,07,15,02,36,23.80
2018,07,15,02,37,23.70
2018,07,15,02,38,23.70
2018,07,15,02,39,23.70
2018,07,15,02,40,23.70
2018,07,15,02,41,23.70
2018,07,15,02,42,23.70
2018,07,15,02,43,23.70
2018,07,15,02,44,23.70
2018,07,15,02,45,23.70
2018,07,15,02,46,23.70
2018,07,15,02,47,23.70
2018,07,15,02,48,23.70
2018,07,15,02,49,23.70
2018,07,15,02,50,23.70
2018,07,15,02,51,23.70
2018,07,15,02,52,23.70
2018,07,15,02,53,23.70
2018,07,15,02,54,23.70
2018,07,15,02,55,23.70
2018,07,15,02,56,23.70
2018,07,15,02,57,23.70
2018,07,15,02,58,23.70
2018,07,15,02,59,23.60
2018,07,15,03,00,23.60
2018,07,15,03,01,23.60
2018,07,15,03,02,23.60
2018,07,15,03,03,23.60
2018,07,15,03,04,23.60
2018,07,15,03,05,23.60
2018,07,15,03,06,23.60
2018,07,15,03,07,23.60
2018,07,15,03,08,23.60
2018,07,15,03,09,23.60
2018,07,15,03,10,23.60
2018,07,15,03,11,23.60
2018,07,15,03,12,23.60
2018,07,15,03,13,23.60
2018,07,15,03,14,23.60
2018,07,15,03,15,23.60
2018,07,15,03,16,23.60
2018,07,15,03,17,23.60
2018,07,15,03,18,23.60
2018,07,15,03,19,23.60
2018,07,15,03,20,23.60
2018,07,15,03,21,23.60
2018,07,15,03,22,23.60
2018,07,15,03,23,23.60
2018,07,15,03,24,23.60
2018,07,15,03,25,23.60
2018,07,15,03,26,23.60
2018,07,15,03,27,23.60
2018,07,15,03,28,23.60
2018,07,15,03,29,23.60
2018,07,15,03,30,23.60
2018,07,15,03,31,23.60
2018,07,15,03,32,23.50
2018,07,15,03,33,23.50
2018,07,15,03,34,23.50
2018,07,15,03,35,23.50
2018,07,15,03,36,23.60
2018,07,15,03,37,23.60
2018,07,15,03,38,23.60
2018,07,15,03,39,23.70
2018,07,15,03,40,23.70
2018,07,15,03,41,23.70
2018,07,15,03,42,23.60
2018,07,15,03,43,23.60
2018,07,15,03,44,23.60
2018,07,15,03,45,23.60
2018,07,15,03,46,23.70
2018,07,15,03,47,23.70
2018,07,15,03,48,23.60
2018,07,15,03,49,23.60
2018,07,15,03,50,23.60
2018,07,15,03,51,23.60
2018,07,15,03,52,23.60
2018,07,15,03,53,23.60
2018,07,15,03,54,23.60
2018,07,15,03,55,23.60
2018,07,15,03,56,23.60
2018,07,15,03,57,23.60
2018,07,15,03,58,23.70
2018,07,15,03,59,23.70
2018,07,15,04,00,23.60
2018,07,15,04,01,23.60
2018,07,15,04,02,23.60
2018,07,15,04,03,23.60
2018,07,15,04,04,23.60
2018,07,15,04,05,23.60
2018,07,15,04,06,23.60
2018,07,15,04,07,23.60
2018,07,15,04,08,23.60
2018,07,15,04,09,23.60
2018,07,15,04,10,23.60
2018,07,15,04,11,23.60
2018,07,15,04,12,23.60
2018,07,15,04,13,23.60
2018,07,15,04,14,23.60
2018,07,15,04,15,23.60
2018,07,15,04,16,23.50
2018,07,15,04,17,23.50
2018,07,15,04,18,23.40
2018,07,15,04,19,23.40
2018,07,15,04,20,23.40
2018,07,15,04,21,23.30
2018,07,15,04,22,23.30
2018,07,15,04,23,23.30
2018,07,15,04,24,23.30
2018,07,15,04,25,23.20
2018,07,15,04,26,23.20
2018,07,15,04,27,23.20
2018,07,15,04,28,23.20
2018,07,15,04,29,23.20
2018,07,15,04,30,23.20
2018,07,15,04,31,23.10
2018,07,15,04,32,23.10
2018,07,15,04,33,23.00
2018,07,15,04,34,23.00
2018,07,15,04,35,22.90
2018,07,15,04,36,22.90
2018,07,15,04,37,22.80
2018,07,15,04,38,22.80
2018,07,15,04,39,22.80
2018,07,15,04,40,22.70
2018,07,15,04,41,22.70
2018,07,15,04,42,22.60
2018,07,15,04,43,22.60
2018,07,15,04,44,22.60
2018,07,15,04,45,22.50
2018,07,15,04,46,22.50
2018,07,15,04,47,22.40
2018,07,15,04,48,22.40
2018,07,15,04,49,22.40
2018,07,15,04,50,22.40
2018,07,15,04,51,22.30
2018,07,15,04,52,22.30
2018,07,15,04,53,22.30
2018,07,15,04,54,22.30
2018,07,15,04,55,22.30
2018,07,15,04,56,22.30
2018,07,15,04,57,22.30
2018,07,15,04,58,22.30
2018,07,15,04,59,22.30
2018,07,15,05,00,22.30
2018,07,15,05,01,22.30
2018,07,15,05,02,22.30
2018,07,15,05,03,22.30
2018,07,15,05,04,22.30
2018,07,15,05,05,22.30
2018,07,15,05,06,22.30
2018,07,15,05,07,22.30
2018,07,15,05,08,22.30
2018,07,15,05,09,22.40
2018,07,15,05,10,22.40
2018,07,15,05,11,22.40
2018,07,15,05,12,22.40
2018,07,15,05,13,22.40
2018,07,15,05,14,22.50
2018,07,15,05,15,22.50
2018,07,15,05,16,22.50
2018,07,15,05,17,22.50
2018,07,15,05,18,22.40
2018,07,15,05,19,22.40
2018,07,15,05,20,22.30
2018,07,15,05,21,22.30
2018,07,15,05,22,22.20
2018,07,15,05,23,22.20
2018,07,15,05,24,22.20
2018,07,15,05,25,22.10
2018,07,15,05,26,22.10
2018,07,15,05,27,22.10
2018,07,15,05,28,22.10
2018,07,15,05,29,22.10
2018,07,15,05,30,22.10
2018,07,15,05,31,22.00
2018,07,15,05,32,22.00
2018,07,15,05,33,21.90
2018,07,15,05,34,21.90
2018,07,15,05,35,21.80
2018,07,15,05,36,21.80
2018,07,15,05,37,21.80
2018,07,15,05,38,21.70
2018,07,15,05,39,21.70
2018,07,15,05,40,21.60
2018,07,15,05,41,21.60
2018,07,15,05,42,21.50
2018,07,15,05,43,21.50
2018,07,15,05,44,21.40
2018,07,15,05,45,21.40
2018,07,15,05,46,21.40
2018,07,15,05,47,21.40
2018,07,15,05,48,21.40
2018,07,15,05,49,21.40
2018,07,15,05,50,21.40
2018,07,15,05,51,21.40
2018,07,15,05,52,21.30
2018,07,15,05,53,21.30
2018,07,15,05,54,21.40
2018,07,15,05,55,21.40
2018,07,15,05,56,21.40
2018,07,15,05,57,21.40
2018,07,15,05,58,21.40
2018,07,15,05,59,21.40
2018,07,15,06,00,21.40
2018,07,15,06,01,21.50
2018,07,15,06,02,21.50
2018,07,15,06,03,21.50
2018,07,15,06,04,21.60
2018,07,15,06,05,21.60
2018,07,15,06,06,21.60
2018,07,15,06,07,21.70
2018,07,15,06,08,21.70
2018,07,15,06,09,21.70
2018,07,15,06,10,21.80
2018,07,15,06,11,21.80
2018,07,15,06,12,21.80
2018,07,15,06,13,21.80
2018,07,15,06,14,21.80
2018,07,15,06,15,21.90
2018,07,15,06,16,21.90
2018,07,15,06,17,21.90
2018,07,15,06,18,21.90
2018,07,15,06,19,21.90
2018,07,15,06,20,22.00
2018,07,15,06,21,22.00
2018,07,15,06,22,22.00
2018,07,15,06,23,22.00
2018,07,15,06,24,22.10
2018,07,15,06,25,22.10
2018,07,15,06,26,22.10
2018,07,15,06,27,22.10
2018,07,15,06,28,22.10
2018,07,15,06,29,22.10
2018,07,15,06,30,22.10
2018,07,15,06,31,22.00
2018,07,15,06,32,22.00
2018,07,15,06,33,22.00
2018,07,15,06,34,21.90
2018,07,15,06,35,21.90
2018,07,15,06,36,21.90
2018,07,15,06,37,21.90
2018,07,15,06,38,21.90
2018,07,15,06,39,21.90
2018,07,15,06,40,21.90
2018,07,15,06,41,22.00
2018,07,15,06,42,22.00
2018,07,15,06,43,22.10
2018,07,15,06,44,22.10
2018,07,15,06,45,22.10
2018,07,15,06,46,22.20
2018,07,15,06,47,22.20
2018,07,15,06,48,22.10
2018,07,15,06,49,22.10
2018,07,15,06,50,22.10
2018,07,15,06,51,22.10
2018,07,15,06,52,22.10
2018,07,15,06,53,22.10
2018,07,15,06,54,22.10
2018,07,15,06,55,22.10
2018,07,15,06,56,22.10
2018,07,15,06,57,22.10
2018,07,15,06,58,22.10
2018,07,15,06,59,22.10
2018,07,15,07,00,22.10
2018,07,15,07,01,22.10
2018,07,15,07,02,22.10
2018,07,15,07,03,22.10
2018,07,15,07,04,22.10
2018,07,15,07,05,22.20
2018,07,15,07,06,22.20
2018,07,15,07,07,22.20
2018,07,15,07,08,22.20
2018,07,15,07,09,22.20
2018,07,15,07,10,22.30
2018,07,15,07,11,22.30
2018,07,15,07,12,22.40
2018,07,15,07,13,22.40
2018,07,15,07,14,22.40
2018,07,15,07,15,22.50
2018,07,15,07,16,22.60
2018,07,15,07,17,22.60
2018,07,15,07,18,22.60
2018,07,15,07,19,22.70
2018,07,15,07,20,22.70
2018,07,15,07,21,22.70
2018,07,15,07,22,22.80
2018,07,15,07,23,22.80
2018,07,15,07,24,22.90
2018,07,15,07,25,22.90
2018,07,15,07,26,23.00
2018,07,15,07,27,23.10
2018,07,15,07,28,23.20
2018,07,15,07,29,23.30
2018,07,15,07,30,23.30
2018,07,15,07,31,23.40
2018,07,15,07,32,23.40
2018,07,15,07,33,23.40
2018,07,15,07,34,23.50
2018,07,15,07,35,23.50
2018,07,15,07,36,23.60
2018,07,15,07,37,23.70
2018,07,15,07,38,23.70
2018,07,15,07,39,23.80
2018,07,15,07,40,23.80
2018,07,15,07,41,23.90
2018,07,15,07,42,23.90
2018,07,15,07,43,24.00
2018,07,15,07,44,24.10
2018,07,15,07,45,24.10
2018,07,15,07,46,24.20
2018,07,15,07,47,24.20
2018,07,15,07,48,24.30
2018,07,15,07,49,24.30
2018,07,15,07,50,24.40
2018,07,15,07,51,24.40
2018,07,15,07,52,24.40
2018,07,15,07,53,24.50
2018,07,15,07,54,24.50
2018,07,15,07,55,24.60
2018,07,15,07,56,24.60
2018,07,15,07,57,24.60
2018,07,15,07,58,24.70
2018,07,15,07,59,24.60
2018,07,15,08,00,24.50
2018,07,15,08,01,24.40
2018,07,15,08,02,24.30
2018,07,15,08,03,24.30
2018,07,15,08,04,24.30
2018,07,15,08,05,24.30
2018,07,15,08,06,24.40
2018,07,15,08,07,24.40
2018,07,15,08,08,24.40
2018,07,15,08,09,24.30
2018,07,15,08,10,24.30
2018,07,15,08,11,24.30
2018,07,15,08,12,24.30
2018,07,15,08,13,24.30
2018,07,15,08,14,24.30
2018,07,15,08,15,24.40
2018,07,15,08,16,24.40
2018,07,15,08,17,24.50
2018,07,15,08,18,24.60
2018,07,15,08,19,24.60
2018,07,15,08,20,24.70
2018,07,15,08,21,24.80
2018,07,15,08,22,24.80
2018,07,15,08,23,24.80
2018,07,15,08,24,24.80
2018,07,15,08,25,24.90
2018,07,15,08,26,24.90
2018,07,15,08,27,24.90
2018,07,15,08,28,24.90
2018,07,15,08,29,24.90
2018,07,15,08,30,24.90
2018,07,15,08,31,24.90
2018,07,15,08,32,25.00
2018,07,15,08,33,25.00
2018,07,15,08,34,25.00
2018,07,15,08,35,25.00
2018,07,15,08,36,25.10
2018,07,15,08,37,25.00
2018,07,15,08,38,25.00
2018,07,15,08,39,25.00
2018,07,15,08,40,25.00
2018,07,15,08,41,24.90
2018,07,15,08,42,24.90
2018,07,15,08,43,24.90
2018,07,15,08,44,24.90
2018,07,15,08,45,24.90
2018,07,15,08,46,24.90
2018,07,15,08,47,25.00
2018,07,15,08,48,25.00
2018,07,15,08,49,25.10
2018,07,15,08,50,25.20
2018,07,15,08,51,25.20
2018,07,15,08,52,25.20
2018,07,15,08,53,25.20
2018,07,15,08,54,25.20
2018,07,15,08,55,25.20
2018,07,15,08,56,25.20
2018,07,15,08,57,25.30
2018,07,15,08,58,25.30
2018,07,15,08,59,25.30
2018,07,15,09,00,25.20
2018,07,15,09,01,25.10
2018,07,15,09,02,25.10
2018,07,15,09,03,25.10
2018,07,15,09,04,25.00
2018,07,15,09,05,25.00
2018,07,15,09,06,24.90
2018,07,15,09,07,24.90
2018,07,15,09,08,24.90
2018,07,15,09,09,24.90
2018,07,15,09,10,24.80
2018,07,15,09,11,24.80
2018,07,15,09,12,24.80
2018,07,15,09,13,24.90
2018,07,15,09,14,24.90
2018,07,15,09,15,24.90
2018,07,15,09,16,25.00
2018,07,15,09,17,25.10
2018,07,15,09,18,25.10
2018,07,15,09,19,25.20
2018,07,15,09,20,25.30
2018,07,15,09,21,25.30
2018,07,15,09,22,25.20
2018,07,15,09,23,25.20
2018,07,15,09,24,25.20
2018,07,15,09,25,25.20
2018,07,15,09,26,25.30
2018,07,15,09,27,25.30
2018,07,15,09,28,25.30
2018,07,15,09,29,25.40
2018,07,15,09,30,25.40
2018,07,15,09,31,25.40
2018,07,15,09,32,25.50
2018,07,15,09,33,25.50
2018,07,15,09,34,25.50
2018,07,15,09,35,25.50
2018,07,15,09,36,25.40
2018,07,15,09,37,25.40
2018,07,15,09,38,25.40
2018,07,15,09,39,25.40
2018,07,15,09,40,25.40
2018,07,15,09,41,25.40
2018,07,15,09,42,25.40
2018,07,15,09,43,25.50
2018,07,15,09,44,25.50
2018,07,15,09,45,25.50
2018,07,15,09,46,25.60
2018,07,15,09,47,25.60
2018,07,15,09,48,25.60
2018,07,15,09,49,25.60
2018,07,15,09,50,25.50
2018,07,15,09,51,25.40
2018,07,15,09,52,25.30
2018,07,15,09,53,25.20
2018,07,15,09,54,25.20
2018,07,15,09,55,25.30
2018,07,15,09,56,25.30
2018,07,15,09,57,25.30
2018,07,15,09,58,25.30
2018,07,15,09,59,25.20
2018,07,15,10,00,25.20
2018,07,15,10,01,25.20
2018,07,15,10,02,25.20
2018,07,15,10,03,25.20
2018,07,15,10,04,25.20
2018,07,15,10,05,25.30
2018,07,15,10,06,25.30
2018,07,15,10,07,25.40
2018,07,15,10,08,25.50
2018,07,15,10,09,25.60
2018,07,15,10,10,25.60
2018,07,15,10,11,25.70
2018,07,15,10,12,25.60
2018,07,15,10,13,25.60
2018,07,15,10,14,25.60
2018,07,15,10,15,25.60
2018,07,15,10,16,25.70
2018,07,15,10,17,25.70
2018,07,15,10,18,25.80
2018,07,15,10,19,25.90
2018,07,15,10,20,25.80
2018,07,15,10,21,25.80
2018,07,15,10,22,25.70
2018,07,15,10,23,25.70
2018,07,15,10,24,25.70
2018,07,15,10,25,25.70
2018,07,15,10,26,25.70
2018,07,15,10,27,25.70
2018,07,15,10,28,25.80
2018,07,15,10,29,25.80
2018,07,15,10,30,25.80
2018,07,15,10,31,25.80
2018,07,15,10,32,25.80
2018,07,15,10,33,25.70
2018,07,15,10,34,25.70
2018,07,15,10,35,25.70
2018,07,15,10,36,25.70
2018,07,15,10,37,25.60
2018,07,15,10,38,25.60
2018,07,15,10,39,25.70
2018,07,15,10,40,25.70
2018,07,15,10,41,25.70
2018,07,15,10,42,25.70
2018,07,15,10,43,25.80
2018,07,15,10,44,25.80
2018,07,15,10,45,25.70
2018,07,15,10,46,25.60
2018,07,15,10,47,25.50
2018,07,15,10,48,25.50
2018,07,15,10,49,25.50
2018,07,15,10,50,25.60
2018,07,15,10,51,25.60
2018,07,15,10,52,25.60
2018,07,15,10,53,25.60
2018,07,15,10,54,25.60
2018,07,15,10,55,25.60
2018,07,15,10,56,25.60
2018,07,15,10,57,25.60
2018,07,15,10,58,25.60
2018,07,15,10,59,25.60
2018,07,15,11,00,25.70
2018,07,15,11,01,25.70
2018,07,15,11,02,25.80
2018,07,15,11,03,25.90
2018,07,15,11,04,25.90
2018,07,15,11,05,25.90
2018,07,15,11,06,25.90
2018,07,15,11,07,25.90
2018,07,15,11,08,26.00
2018,07,15,11,09,26.20
2018,07,15,11,10,26.20
2018,07,15,11,11,26.30
2018,07,15,11,12,26.30
2018,07,15,11,13,26.30
2018,07,15,11,14,26.40
2018,07,15,11,15,26.40
2018,07,15,11,16,26.40
2018,07,15,11,17,26.50
2018,07,15,11,18,26.60
2018,07,15,11,19,26.70
2018,07,15,11,20,26.80
2018,07,15,11,21,26.80
2018,07,15,11,22,26.80
2018,07,15,11,23,26.70
2018,07,15,11,24,26.80
2018,07,15,11,25,26.80
2018,07,15,11,26,26.80
2018,07,15,11,27,26.80
2018,07,15,11,28,26.80
2018,07,15,11,29,26.80
2018,07,15,11,30,26.90
2018,07,15,11,31,26.90
2018,07,15,11,32,27.00
2018,07,15,11,33,27.10
2018,07,15,11,34,27.10
2018,07,15,11,35,27.20
2018,07,15,11,36,27.30
2018,07,15,11,37,27.40
2018,07,15,11,38,27.50
2018,07,15,11,39,27.60
2018,07,15,11,40,27.60
2018,07,15,11,41,27.70
2018,07,15,11,42,27.70
2018,07,15,11,43,27.70
2018,07,15,11,44,27.60
2018,07,15,11,45,27.60
2018,07,15,11,46,27.60
2018,07,15,11,47,27.60
2018,07,15,11,48,27.40
2018,07,15,11,49,27.30
2018,07,15,11,50,27.20
2018,07,15,11,51,27.30
2018,07,15,11,52,27.30
2018,07,15,11,53,27.30
2018,07,15,11,54,27.40
2018,07,15,11,55,27.50
2018,07,15,11,56,27.50
2018,07,15,11,57,27.60
2018,07,15,11,58,27.60
2018,07,15,11,59,27.60
2018,07,15,12,00,27.60
2018,07,15,12,01,27.60
2018,07,15,12,02,27.50
2018,07,15,12,03,27.50
2018,07,15,12,04,27.50
2018,07,15,12,05,27.60
2018,07,15,12,06,27.70
2018,07,15,12,07,27.70
2018,07,15,12,08,27.70
2018,07,15,12,09,27.80
2018,07,15,12,10,27.80
2018,07,15,12,11,27.80
2018,07,15,12,12,27.90
2018,07,15,12,13,27.90
2018,07,15,12,14,27.90
2018,07,15,12,15,27.90
2018,07,15,12,16,27.90
2018,07,15,12,17,27.90
2018,07,15,12,18,27.80
2018,07,15,12,19,27.70
2018,07,15,12,20,27.60
2018,07,15,12,21,27.50
2018,07,15,12,22,27.40
2018,07,15,12,23,27.40
2018,07,15,12,24,27.40
2018,07,15,12,25,27.40
2018,07,15,12,26,27.40
2018,07,15,12,27,27.40
2018,07,15,12,28,27.40
2018,07,15,12,29,27.40
2018,07,15,12,30,27.50
2018,07,15,12,31,27.60
2018,07,15,12,32,27.60
2018,07,15,12,33,27.60
2018,07,15,12,34,27.60
2018,07,15,12,35,27.70
2018,07,15,12,36,27.80
2018,07,15,12,37,27.80
2018,07,15,12,38,27.90
2018,07,15,12,39,27.90
2018,07,15,12,40,27.90
2018,07,15,12,41,27.90
2018,07,15,12,42,27.90
2018,07,15,12,43,27.90
2018,07,15,12,44,27.90
2018,07,15,12,45,27.90
2018,07,15,12,46,27.90
2018,07,15,12,47,27.90
2018,07,15,12,48,28.00
2018,07,15,12,49,28.00
2018,07,15,12,50,28.00
2018,07,15,12,51,28.10
2018,07,15,12,52,28.10
2018,07,15,12,53,28.10
2018,07,15,12,54,28.10
2018,07,15,12,55,28.20
2018,07,15,12,56,28.20
2018,07,15,12,57,28.30
2018,07,15,12,58,28.30
2018,07,15,12,59,28.40
2018,07,15,13,00,28.50
2018,07,15,13,01,28.70
2018,07,15,13,02,28.80
2018,07,15,13,03,28.90
2018,07,15,13,04,28.90
2018,07,15,13,05,28.90
2018,07,15,13,06,28.90
2018,07,15,13,07,28.90
2018,07,15,13,08,28.90
2018,07,15,13,09,28.90
2018,07,15,13,10,28.90
2018,07,15,13,11,28.90
2018,07,15,13,12,28.80
2018,07,15,13,13,28.80
2018,07,15,13,14,28.70
2018,07,15,13,15,28.70
2018,07,15,13,16,28.70
2018,07,15,13,17,28.70
2018,07,15,13,18,28.60
2018,07,15,13,19,28.60
2018,07,15,13,20,28.70
2018,07,15,13,21,28.70
2018,07,15,13,22,28.70
2018,07,15,13,23,28.70
2018,07,15,13,24,28.70
2018,07,15,13,25,28.70
2018,07,15,13,26,28.80
2018,07,15,13,27,28.80
2018,07,15,13,28,28.90
2018,07,15,13,29,29.00
2018,07,15,13,30,29.20
2018,07,15,13,31,29.20
2018,07,15,13,32,29.20
2018,07,15,13,33,29.30
2018,07,15,13,34,29.20
2018,07,15,13,35,29.10
2018,07,15,13,36,29.10
2018,07,15,13,37,29.00
2018,07,15,13,38,29.10
2018,07,15,13,39,29.20
2018,07,15,13,40,29.30
2018,07,15,13,41,29.30
2018,07,15,13,42,29.40
2018,07,15,13,43,29.40
2018,07,15,13,44,29.40
2018,07,15,13,45,29.40
2018,07,15,13,46,29.40
2018,07,15,13,47,29.30
2018,07,15,13,48,29.30
2018,07,15,13,49,29.30
2018,07,15,13,50,29.20
2018,07,15,13,51,29.10
2018,07,15,13,52,29.10
2018,07,15,13,53,29.10
2018,07,15,13,54,29.10
2018,07,15,13,55,29.10
2018,07,15,13,56,29.20
2018,07,15,13,57,29.30
2018,07,15,13,58,29.30
2018,07,15,13,59,29.30
2018,07,15,14,00,29.40
2018,07,15,14,01,29.40
2018,07,15,14,02,29.40
2018,07,15,14,03,29.40
2018,07,15,14,04,29.40
2018,07,15,14,05,29.30
2018,07,15,14,06,29.30
2018,07,15,14,07,29.30
2018,07,15,14,08,29.40
2018,07,15,14,09,29.50
2018,07,15,14,10,29.60
2018,07,15,14,11,29.70
2018,07,15,14,12,29.70
2018,07,15,14,13,29.80
2018,07,15,14,14,29.80
2018,07,15,14,15,29.80
2018,07,15,14,16,29.80
2018,07,15,14,17,29.90
2018,07,15,14,18,30.00
2018,07,15,14,19,30.10
2018,07,15,14,20,30.10
2018,07,15,14,21,30.20
2018,07,15,14,22,30.30
2018,07,15,14,23,30.40
2018,07,15,14,24,30.40
2018,07,15,14,25,30.50
2018,07,15,14,26,30.50
2018,07,15,14,27,30.60
2018,07,15,14,28,30.60
2018,07,15,14,29,30.60
2018,07,15,14,30,30.60
2018,07,15,14,31,30.60
2018,07,15,14,32,30.60
2018,07,15,14,33,30.60
2018,07,15,14,34,30.60
2018,07,15,14,35,30.60
2018,07,15,14,36,30.50
2018,07,15,14,37,30.40
2018,07,15,14,38,30.40
2018,07,15,14,39,30.30
2018,07,15,14,40,30.30
2018,07,15,14,41,30.30
2018,07,15,14,42,30.30
2018,07,15,14,43,30.30
2018,07,15,14,44,30.20
2018,07,15,14,45,30.20
2018,07,15,14,46,30.20
2018,07,15,14,47,30.20
2018,07,15,14,48,30.20
2018,07,15,14,49,30.20
2018,07,15,14,50,30.20
2018,07,15,14,51,30.30
2018,07,15,14,52,30.20
2018,07,15,14,53,30.10
2018,07,15,14,54,30.10
2018,07,15,14,55,30.10
2018,07,15,14,56,30.10
2018,07,15,14,57,30.10
2018,07,15,14,58,30.10
2018,07,15,14,59,30.10
2018,07,15,15,00,30.10
2018,07,15,15,01,30.10
2018,07,15,15,02,30.00
2018,07,15,15,03,30.00
2018,07,15,15,04,30.00
2018,07,15,15,05,30.00
2018,07,15,15,06,30.00
2018,07,15,15,07,30.00
2018,07,15,15,08,30.00
2018,07,15,15,09,29.90
2018,07,15,15,10,30.00
2018,07,15,15,11,30.00
2018,07,15,15,12,30.00
2018,07,15,15,13,29.90
2018,07,15,15,14,29.90
2018,07,15,15,15,30.00
2018,07,15,15,16,30.00
2018,07,15,15,17,30.10
2018,07,15,15,18,30.10
2018,07,15,15,19,30.20
2018,07,15,15,20,30.20
2018,07,15,15,21,30.30
2018,07,15,15,22,30.30
2018,07,15,15,23,30.40
2018,07,15,15,24,30.50
2018,07,15,15,25,30.50
2018,07,15,15,26,30.40
2018,07,15,15,27,30.30
2018,07,15,15,28,30.20
2018,07,15,15,29,30.10
2018,07,15,15,30,30.10
2018,07,15,15,31,30.10
2018,07,15,15,32,30.20
2018,07,15,15,33,30.30
2018,07,15,15,34,30.40
2018,07,15,15,35,30.50
2018,07,15,15,36,30.60
2018,07,15,15,37,30.60
2018,07,15,15,38,30.70
2018,07,15,15,39,30.80
2018,07,15,15,40,30.90
2018,07,15,15,41,30.90
2018,07,15,15,42,30.90
2018,07,15,15,43,30.80
2018,07,15,15,44,30.80
2018,07,15,15,45,30.80
2018,07,15,15,46,30.80
2018,07,15,15,47,30.80
2018,07,15,15,48,30.90
2018,07,15,15,49,31.00
2018,07,15,15,50,31.00
2018,07,15,15,51,31.10
2018,07,15,15,52,31.10
2018,07,15,15,53,31.10
2018,07,15,15,54,31.20
2018,07,15,15,55,31.10
2018,07,15,15,56,31.10
2018,07,15,15,57,31.10
2018,07,15,15,58,31.10
2018,07,15,15,59,31.20
2018,07,15,16,00,31.20
2018,07,15,16,01,31.20
2018,07,15,16,02,31.20
2018,07,15,16,03,31.20
2018,07,15,16,04,31.20
2018,07,15,16,05,31.30
2018,07,15,16,06,31.30
2018,07,15,16,07,31.20
2018,07,15,16,08,31.30
2018,07,15,16,09,31.30
2018,07,15,16,10,31.20
2018,07,15,16,11,31.20
2018,07,15,16,12,31.10
2018,07,15,16,13,31.00
2018,07,15,16,14,31.00
2018,07,15,16,15,30.90
2018,07,15,16,16,30.90
2018,07,15,16,17,30.80
2018,07,15,16,18,30.80
2018,07,15,16,19,30.90
2018,07,15,16,20,31.00
2018,07,15,16,21,31.00
2018,07,15,16,22,31.10
2018,07,15,16,23,31.20
2018,07,15,16,24,31.10
2018,07,15,16,25,31.10
2018,07,15,16,26,31.10
2018,07,15,16,27,31.00
2018,07,15,16,28,31.00
2018,07,15,16,29,31.00
2018,07,15,16,30,31.10
2018,07,15,16,31,31.10
2018,07,15,16,32,31.20
2018,07,15,16,33,31.30
2018,07,15,16,34,31.30
2018,07,15,16,35,31.40
2018,07,15,16,36,31.40
2018,07,15,16,37,31.40
2018,07,15,16,38,31.40
2018,07,15,16,39,31.30
2018,07,15,16,40,31.40
2018,07,15,16,41,31.30
2018,07,15,16,42,31.30
2018,07,15,16,43,31.40
2018,07,15,16,44,31.40
2018,07,15,16,45,31.50
2018,07,15,16,46,31.50
2018,07,15,16,47,31.50
2018,07,15,16,48,31.60
2018,07,15,16,49,31.60
2018,07,15,16,50,31.50
2018,07,15,16,51,31.50
2018,07,15,16,52,31.40
2018,07,15,16,53,31.40
2018,07,15,16,54,31.30
2018,07,15,16,55,31.30
2018,07,15,16,56,31.40
2018,07,15,16,57,31.30
2018,07,15,16,58,31.30
2018,07,15,16,59,31.20
2018,07,15,17,00,31.20
2018,07,15,17,01,31.20
2018,07,15,17,02,31.20
2018,07,15,17,03,31.30
2018,07,15,17,04,31.30
2018,07,15,17,05,31.30
2018,07,15,17,06,31.30
2018,07,15,17,07,31.20
2018,07,15,17,08,31.10
2018,07,15,17,09,31.10
2018,07,15,17,10,31.10
2018,07,15,17,11,31.10
2018,07,15,17,12,31.10
2018,07,15,17,13,31.10
2018,07,15,17,14,31.10
2018,07,15,17,15,31.10
2018,07,15,17,16,31.10
2018,07,15,17,17,31.10
2018,07,15,17,18,31.00
2018,07,15,17,19,31.00